Showing default

PTD-R (TYVAK-0127), 60523

Orbit data source: Space-Track

PTD-R (TYVAK-0127), 60523 is an American payload satellite in SSO that was launched on Fri, 16 Aug 2024 UTC via an FALCON 9 launch vehicle from the Air Force Western Test Range (AFWTR). Payload-class satellites include a variety of spacecraft equipped with specific instruments for various scientific and technological missions. These include communications satellites like Starlink; space stations such as the ISS; scientific satellites like the Hubble; Earth observation satellites from companies like Planet Labs, Umbra, and HawkEye 360; GPS; miniature CubeSats for education and research; and military/defense satellites.

Loading next visibility...
Identifier
60523, 2024-149BH
Orbit
SSO
Country
Flag of USUS
Related business
Manufacturer
Terran Orbital
Mission
Operational Civil Technology
Bus & Motor
CUBESAT 6U, Unknown motor
Mass
~10 kg wet, ~10 kg dry
Launch date (UTC)
2024-08-16 (1 year ago)
Launch vehicle
FALCON 9
Launch site
Air Force Western Test Range (AFWTR)
Object type
Payload
Rocket body
Debris
Shape & HBR
Box + 2 Pan, 1.1 m
Radar Cross Section
0.189 m², Medium (>0.1 m² and < 1m²)

Expand to show TLE details & history
Last TLE update: 15 hours ago

TLE from 15 hours ago
0 PTD-R (TYVAK-0127)
1 60523U 24149BH  25352.18848140  .00036720  00000-0  56794-3 0  9999
2 60523  97.3925  77.1080 0003585 189.4815 170.6372 15.53987397 74962
Epoch: 2025-12-18T04:31Z
TLE epoch observation values (Epoch: 2025-12-18T04:31:24.792Z)
Latitude
Longitude
-77.79287°
Altitude
410.634 km
Speed
7.663 km/s
True Right ascension
05h 08m 25s
True Declination
0° 00' 00"
Sunlit
Object was in full shadow at epoch
Visualization orbit readout
Latitude
Unknown
Longitude
Unknown
Altitude
Unknown
Speed
Unknown
Apparent Right ascension
Unknown
Apparent Declination
Unknown
Sunlit
N/A
Visualization observer readout
Local Sidereal Time
18:49:30
Azimuth
Unknown
Elevation
Unknown
Doppler factor
Unknown
Orbital elements
Apogee altitude
404.449 km
Perigee altitude
399.587 km
Semi-major axis
6,780.155 km
Eccentricity
0.00036
Inclination
97.3925°
RAAN
77.108°
Arg. of periapsis
189.4815°
True anomaly
170.64388°
Mean anomaly
170.6372°
Eccentric anomaly
170.64054°
Mean motion
3.88762 °/min
Orbital period
92.6 mins
BSTAR
0.00056794
Loading maneuver chart data...
Computing Atmospheric mass density...
Loading historical data...
Loading historical data...
Loading historical data...
Loading historical data...
Loading historical data...
Loading historical data...
Loading historical data...

Documentation

Showing up to 5 results
|